Regional Weather Roundup
Issued by NWS Little Rock, AR

Home | Current Version | Previous Version | Text Only | Print | Product List | Glossary Off
Versions: 1 2 3 4 5 6 7 8 9 10 11 12 13 14 15 16 17 18 19 20 21 22 23 24 25 26 27 28 29 30 31 32 33 34 35 36 37 38 39 40 41 42 43 44 45 46 47

000
ASUS44 KLZK 201605
RWRLZK

WEATHER ROUNDUP FOR ARKANSAS
NATIONAL WEATHER SERVICE LITTLE ROCK AR
1100 AM CDT MON OCT 20 2014

NOTE: "FAIR" INDICATES FEW OR NO CLOUDS BELOW 12,000 FEET WITH NO
SIGNIFICANT WEATHER AND/OR OBSTRUCTIONS TO VISIBILITY.

ARZ001-003-010-029-201700-
NORTHWEST ARKANSAS

CITY           SKY/WX    TMP DP  RH WIND       PRES   REMARKS
FAYETTEVILLE   LGT RAIN  59  56  89 S7        30.11F
FORT SMITH     PTSUNNY   60  53  77 CALM      30.11S
HARRISON       PTSUNNY   65  55  70 W9        30.09R
BENTONVILLE    CLOUDY    61  54  77 SW7       30.10F
ROGERS         CLOUDY    60  54  80 SW7       30.11S
SILOAM SPGS    CLOUDY    61  52  72 SW7       30.12F
HIGHFILL       CLOUDY    59  55  87 SW7       30.10F
SPRINGDALE     CLOUDY    59  54  82 SW5       30.12F
$$

ARZ004-005-016-201700-
NORTH CENTRAL ARKANSAS

CITY           SKY/WX    TMP DP  RH WIND       PRES   REMARKS
BATESVILLE     CLOUDY    63  54  72 SW5       30.09S
FLIPPIN        MOSUNNY   64  52  63 W6        30.08S
MTN HOME       PTSUNNY   63  53  70 VRB5      30.07S
$$

ARZ040-041-201700-
WEST CENTRAL ARKANSAS

CITY           SKY/WX    TMP DP  RH WIND       PRES   REMARKS
MENA           MOSUNNY   68  52  56 CALM      30.13S
MOUNT IDA      CLOUDY    62  55  77 CALM      30.10S
$$

ARZ009-017-025-026-028-201700-
NORTHEAST ARKANSAS

CITY           SKY/WX    TMP DP  RH WIND       PRES   REMARKS
CORNING          N/A     59  52  77 SW12      30.06F
JONESBORO      CLOUDY    61  51  70 SW9       30.08S
NEWPORT        MOSUNNY   67  52  58 SW7       30.10S
WALNUT RIDGE   MOSUNNY   61  39  44 SW9       30.07F
BLYTHEVILLE    CLOUDY    63  51  65 SW9       30.08F
NW BLYTHEVILLE PTSUNNY   63  50  63 SW10      30.08F
$$

ARZ022-023-033-042-044-201700-
CENTRAL ARKANSAS

CITY           SKY/WX    TMP DP  RH WIND       PRES   REMARKS
LITTLE ROCK    PTSUNNY   66  50  56 W9        30.12R
N LITTLE ROCK  PTSUNNY   62  54  73 W3        30.12R
JACKSONVILLE   PTSUNNY   61  53  74 W2        30.12R
SEARCY         CLOUDY    59  53  80 CALM      30.12S
HOT SPRINGS    CLOUDY    60  52  74 NW3       30.13S
RUSSELLVILLE   CLOUDY    61  53  75 S3        30.10F
$$

ARZ036-201700-
EAST ARKANSAS

CITY           SKY/WX    TMP DP  RH WIND       PRES   REMARKS
WEST MEMPHIS   PTSUNNY   66  52  60 VRB6      30.09F
$$

ARZ050-053-066-070-073-201700-
SOUTHWEST ARKANSAS

CITY           SKY/WX    TMP DP  RH WIND       PRES   REMARKS
ARKADELPHIA    FAIR      66  54  65 CALM      30.13F
CAMDEN         SUNNY     66  50  55 CALM      30.13S
TEXARKANA      SUNNY     66  51  58 SW7       30.12F
EL DORADO      SUNNY     67  50  54 VRB5      30.13S
DE QUEEN       SUNNY     64  53  67 CALM      30.12S
$$

ARZ056-057-069-201700-
SOUTHEAST ARKANSAS

CITY           SKY/WX    TMP DP  RH WIND       PRES   REMARKS
PINE BLUFF     SUNNY     65  50  58 VRB6      30.11F
STUTTGART      PTSUNNY   68  50  52 SW6       30.12S
MONTICELLO     SUNNY     66  49  54 MISG      30.11F

$$




USA.gov is the U.S. government's official web portal to all federal, state and local government web resources and services.